Tracking 35280 objects as of 7-Sep-2026
HD Live streaming from Space Station
objects crossing your sky now

SITRO-AIS-64

Track SITRO-AIS-64 now!
10-day predictions
SITRO-AIS-64 is classified as:


NORAD ID: 67292
Int'l Code: 2025-313AW
Launch date: December 28, 2025
Source: (TBD)
Launch site: VOSTOCHNY COSMODROME (VOSTO)

Uplink (MHz):
Downlink (MHz): 401.123
Beacon (MHz):
Mode: 2k4 GMSK_USP
Call sign: SC2352
Status: Unknown

Your satellite tracking list
Your tracking list is empty




NASA's NSSDC Master Catalog

Two Line Element Set (TLE):
1 67292U 25313AW  26250.19841339  .00006588  00000-0  25628-3 0  9996
2 67292  97.3875 324.3082 0010101  71.0562 289.1771 15.26312617 38485
Source of the keplerian elements: AFSPC